| time (UTC) | temp C | wind direction | speed KPH | gust KPH | rain 1hr cm | rain 24hr cm | rain mn cm | humidity % | barometer mb |
| 20260506062153 | 21 | 23 | 3.2 | 9.7 | 0.00 | 0.03 | 0.00 | 92 | 1010.2 |
| 20260506061643 | 21 | 45 | 4.8 | 9.7 | 0.00 | 0.03 | 0.00 | 92 | 1010.3 |
| 20260506061133 | 21 | 45 | 3.2 | 9.7 | 0.00 | 0.03 | 0.00 | 92 | 1010.1 |
| 20260506060623 | 21 | 45 | 3.2 | 9.7 | 0.00 | 0.03 | 0.00 | 92 | 1010.4 |
| 20260506060124 | 21 | 0 | 6.4 | 11.3 | 0.00 | 0.03 | 0.00 | 92 | 1010.5 |
| 20260506050931 | 21 | 45 | 4.8 | 14.5 | 0.00 | 0.03 | 0.00 | 93 | 1011.0 |
| 20260506050420 | 22 | 45 | 6.4 | 14.5 | 0.00 | 0.03 | 0.00 | 93 | 1010.8 |
| 20260506044850 | 21 | 23 | 4.8 | 9.7 | 0.00 | 0.03 | 0.00 | 92 | 1010.4 |
| 20260506044343 | 21 | 68 | 3.2 | 9.7 | 0.00 | 0.03 | 0.00 | 92 | 1010.6 |
| 20260506043830 | 21 | 45 | 4.8 | 9.7 | 0.00 | 0.03 | 0.00 | 92 | 1010.4 |
| 20260506043320 | 21 | 45 | 1.6 | 11.3 | 0.00 | 0.03 | 0.00 | 91 | 1010.4 |
| 20260506042809 | 21 | 23 | 6.4 | 11.3 | 0.00 | 0.03 | 0.00 | 91 | 1010.3 |
| 20260506042312 | 21 | 23 | 6.4 | 11.3 | 0.00 | 0.03 | 0.00 | 91 | 1010.6 |
| 20260506041749 | 21 | 45 | 0.0 | 11.3 | 0.00 | 0.03 | 0.00 | 91 | 1010.5 |
| 20260506040728 | 21 | 45 | 4.8 | 6.4 | 0.00 | 0.03 | 0.00 | 91 | 1010.5 |
| 20260506035708 | 21 | 23 | 3.2 | 6.4 | 0.00 | 0.03 | 0.00 | 91 | 1010.9 |
| 20260506035158 | 21 | 68 | 1.6 | 6.4 | 0.00 | 0.03 | 0.00 | 91 | 1010.7 |
| 20260506034648 | 21 | 0 | 3.2 | 6.4 | 0.00 | 0.03 | 0.00 | 91 | 1010.9 |
| 20260506033628 | 21 | 68 | 3.2 | 6.4 | 0.00 | 0.03 | 0.00 | 91 | 1010.7 |
| 20260506033118 | 21 | 23 | 3.2 | 9.7 | 0.00 | 0.03 | 0.00 | 90 | 1010.6 |
| 20260506032608 | 21 | 45 | 3.2 | 9.7 | 0.00 | 0.03 | 0.00 | 90 | 1010.7 |
| 20260506032057 | 21 | 45 | 1.6 | 11.3 | 0.00 | 0.03 | 0.00 | 90 | 1010.6 |
| 20260506031548 | 21 | 68 | 4.8 | 12.9 | 0.00 | 0.03 | 0.00 | 89 | 1010.8 |
| 20260506031037 | 21 | 90 | 6.4 | 12.9 | 0.00 | 0.03 | 0.00 | 89 | 1010.7 |
| 20260506030527 | 21 | 90 | 0.0 | 9.7 | 0.00 | 0.03 | 0.00 | 88 | 1010.9 |
| 20260506030004 | 21 | 68 | 4.8 | 9.7 | 0.00 | 0.03 | 0.03 | 88 | 1010.6 |
| 20260506024957 | 21 | 90 | 1.6 | 11.3 | 0.00 | 0.03 | 0.03 | 89 | 1010.7 |
| 20260506024447 | 20 | 113 | 0.0 | 11.3 | 0.00 | 0.03 | 0.03 | 91 | 1010.7 |
| 20260506023937 | 20 | 68 | 3.2 | 11.3 | 0.00 | 0.03 | 0.03 | 92 | 1010.9 |
| 20260506022405 | 20 | 68 | 4.8 | 9.7 | 0.00 | 0.03 | 0.03 | 92 | 1010.9 |
| 20260506021856 | 21 | 90 | 3.2 | 9.7 | 0.00 | 0.03 | 0.03 | 91 | 1011.0 |
| 20260506021358 | 21 | 90 | 6.4 | 11.3 | 0.00 | 0.03 | 0.03 | 91 | 1010.7 |
| 20260506020836 | 21 | 113 | 3.2 | 11.3 | 0.00 | 0.03 | 0.03 | 90 | 1011.0 |
| 20260506020326 | 21 | 45 | 3.2 | 11.3 | 0.00 | 0.03 | 0.03 | 90 | 1011.1 |
| 20260506015815 | 21 | 135 | 3.2 | 9.7 | 0.00 | 0.03 | 0.03 | 90 | 1011.2 |
| 20260506015306 | 21 | 135 | 3.2 | 11.3 | 0.00 | 0.03 | 0.03 | 90 | 1011.4 |
| 20260506014755 | 21 | 135 | 3.2 | 11.3 | 0.00 | 0.03 | 0.03 | 90 | 1011.1 |
| 20260506013735 | 21 | 135 | 0.0 | 6.4 | 0.00 | 0.03 | 0.03 | 92 | 1011.1 |
| 20260506013225 | 21 | 90 | 0.0 | 6.4 | 0.00 | 0.03 | 0.03 | 92 | 1011.1 |
| 20260506012714 | 22 | 203 | 1.6 | 6.4 | 0.00 | 0.03 | 0.03 | 93 | 1011.0 |
| 20260506012204 | 22 | 90 | 3.2 | 6.4 | 0.00 | 0.03 | 0.03 | 92 | 1010.8 |
| 20260506011157 | 22 | 68 | 0.0 | 0.0 | 0.00 | 0.03 | 0.03 | 92 | 1010.8 |
| 20260506010634 | 22 | 68 | 0.0 | 0.0 | 0.00 | 0.03 | 0.03 | 92 | 1010.6 |
| 20260506010124 | 22 | 203 | 0.0 | 3.2 | 0.00 | 0.03 | 0.03 | 92 | 1010.5 |
| 20260506005614 | 22 | 113 | 0.0 | 6.4 | 0.00 | 0.03 | 0.03 | 92 | 1010.8 |
| 20260506005104 | 22 | 90 | 1.6 | 6.4 | 0.00 | 0.03 | 0.03 | 92 | 1010.7 |
| 20260506003533 | 23 | 45 | 0.0 | 3.2 | 0.00 | 0.03 | 0.03 | 93 | 1010.9 |
| 20260506003023 | 23 | 158 | 0.0 | 3.2 | 0.00 | 0.03 | 0.03 | 93 | 1010.6 |
| 20260506002513 | 23 | 158 | 0.0 | 6.4 | 0.00 | 0.03 | 0.03 | 92 | 1010.7 |
| 20260506002004 | 23 | 248 | 0.0 | 6.4 | 0.00 | 0.03 | 0.03 | 91 | 1010.8 |
| 20260506001453 | 23 | 203 | 3.2 | 6.4 | 0.00 | 0.03 | 0.03 | 91 | 1010.6 |
| 20260506000956 | 23 | 225 | 0.0 | 0.0 | 0.00 | 0.03 | 0.03 | 90 | 1010.6 |
| 20260506000433 | 24 | 225 | 0.0 | 3.2 | 0.00 | 0.03 | 0.03 | 90 | 1010.5 |
| 20260505235922 | 24 | 225 | 0.0 | 6.4 | 0.00 | 0.03 | 0.03 | 89 | 1010.5 |
| 20260505235412 | 24 | 225 | 1.6 | 6.4 | 0.00 | 0.03 | 0.03 | 89 | 1010.7 |
| 20260505234902 | 23 | 248 | 0.0 | 3.2 | 0.00 | 0.03 | 0.03 | 91 | 1010.1 |
| 20260505234351 | 23 | 225 | 0.0 | 6.4 | 0.00 | 0.03 | 0.03 | 91 | 1010.4 |
| 20260505233842 | 23 | 45 | 0.0 | 12.9 | 0.00 | 0.03 | 0.03 | 91 | 1010.3 |
| 20260505233332 | 23 | 180 | 6.4 | 12.9 | 0.00 | 0.03 | 0.03 | 92 | 1010.2 |
| 20260505232822 | 23 | 248 | 8.0 | 12.9 | 0.03 | 0.03 | 0.03 | 91 | 1010.3 |
| 20260505232312 | 24 | 203 | 3.2 | 9.7 | 0.03 | 0.03 | 0.03 | 88 | 1010.0 |
| 20260505231801 | 24 | 248 | 0.0 | 3.2 | 0.03 | 0.03 | 0.03 | 89 | 1009.8 |
| 20260505231251 | 24 | 248 | 0.0 | 3.2 | 0.03 | 0.03 | 0.03 | 89 | 1009.4 |
| 20260505230741 | 24 | 23 | 1.6 | 3.2 | 0.03 | 0.03 | 0.03 | 89 | 1008.8 |
| 20260505230231 | 24 | 0 | 1.6 | 3.2 | 0.03 | 0.03 | 0.03 | 89 | 1008.9 |
| 20260505225211 | 24 | 45 | 0.0 | 3.2 | 0.03 | 0.03 | 0.03 | 88 | 1009.0 |
| 20260505224701 | 24 | 23 | 0.0 | 3.2 | 0.03 | 0.03 | 0.03 | 89 | 1009.0 |
| 20260505224151 | 24 | 23 | 0.0 | 3.2 | 0.03 | 0.03 | 0.03 | 89 | 1009.2 |
| 20260505223642 | 24 | 23 | 0.0 | 3.2 | 0.03 | 0.03 | 0.03 | 90 | 1008.7 |
| 20260505223130 | 24 | 45 | 0.0 | 0.0 | 0.03 | 0.03 | 0.03 | 91 | 1009.2 |
| 20260505222633 | 24 | 45 | 0.0 | 0.0 | 0.00 | 0.00 | 0.00 | 91 | 1009.0 |
| 20260505222110 | 24 | 45 | 0.0 | 0.0 | 0.00 | 0.00 | 0.00 | 92 | 1008.9 |
| 20260505221601 | 24 | 68 | 0.0 | 0.0 | 0.00 | 0.00 | 0.00 | 91 | 1008.9 |
| 20260505221050 | 24 | 90 | 0.0 | 0.0 | 0.00 | 0.00 | 0.00 | 91 | 1009.3 |
| 20260505220539 | 25 | 113 | 0.0 | 0.0 | 0.00 | 0.00 | 0.00 | 90 | 1009.3 |
| 20260505220029 | 25 | 113 | 0.0 | 0.0 | 0.00 | 0.00 | 0.00 | 89 | 1009.0 |
| 20260505215520 | 25 | 90 | 0.0 | 0.0 | 0.00 | 0.00 | 0.00 | 88 | 1009.2 |
| 20260505215010 | 25 | 90 | 0.0 | 0.0 | 0.00 | 0.00 | 0.00 | 88 | 1008.7 |
| 20260505214459 | 25 | 113 | 0.0 | 0.0 | 0.00 | 0.00 | 0.00 | 87 | 1008.8 |
| 20260505213949 | 25 | 68 | 0.0 | 0.0 | 0.00 | 0.00 | 0.00 | 86 | 1008.7 |
| 20260505213444 | 25 | 68 | 0.0 | 0.0 | 0.00 | 0.00 | 0.00 | 85 | 1008.5 |
| 20260505212929 | 25 | 90 | 0.0 | 0.0 | 0.00 | 0.00 | 0.00 | 85 | 1008.6 |
| 20260505212418 | 25 | 90 | 0.0 | 0.0 | 0.00 | 0.00 | 0.00 | 85 | 1008.9 |
| 20260505211908 | 26 | 113 | 0.0 | 0.0 | 0.00 | 0.00 | 0.00 | 83 | 1009.0 |
| 20260505211400 | 26 | 113 | 0.0 | 0.0 | 0.00 | 0.00 | 0.00 | 81 | 1008.9 |
| 20260505210848 | 26 | 113 | 0.0 | 0.0 | 0.00 | 0.00 | 0.00 | 81 | 1009.0 |
| 20260505210338 | 26 | 113 | 0.0 | 0.0 | 0.00 | 0.00 | 0.00 | 80 | 1008.6 |
| 20260505205828 | 26 | 113 | 0.0 | 0.0 | 0.00 | 0.00 | 0.00 | 79 | 1008.9 |
| 20260505205317 | 26 | 113 | 0.0 | 0.0 | 0.00 | 0.00 | 0.00 | 79 | 1009.2 |
| 20260505204807 | 26 | 113 | 0.0 | 0.0 | 0.00 | 0.00 | 0.00 | 78 | 1009.0 |
| 20260505204258 | 26 | 113 | 0.0 | 3.2 | 0.00 | 0.00 | 0.00 | 77 | 1008.7 |
| 20260505203749 | 26 | 90 | 0.0 | 3.2 | 0.00 | 0.00 | 0.00 | 77 | 1009.0 |
| 20260505203239 | 26 | 90 | 0.0 | 6.4 | 0.00 | 0.00 | 0.00 | 77 | 1008.7 |
| 20260505202727 | 27 | 45 | 0.0 | 6.4 | 0.00 | 0.00 | 0.00 | 76 | 1008.6 |
| 20260505201706 | 27 | 23 | 3.2 | 6.4 | 0.00 | 0.00 | 0.00 | 75 | 1009.0 |
| 20260505201149 | 27 | 68 | 1.6 | 3.2 | 0.00 | 0.00 | 0.00 | 75 | 1009.2 |
| 20260505200647 | 27 | 23 | 0.0 | 6.4 | 0.00 | 0.00 | 0.00 | 76 | 1009.2 |
| 20260505200136 | 27 | 23 | 3.2 | 6.4 | 0.00 | 0.00 | 0.00 | 76 | 1009.4 |
| 20260505195626 | 27 | 45 | 3.2 | 6.4 | 0.00 | 0.00 | 0.00 | 75 | 1009.0 |
| 20260505195115 | 27 | 45 | 3.2 | 6.4 | 0.00 | 0.00 | 0.00 | 75 | 1009.2 |
| 20260505194604 | 27 | 45 | 3.2 | 6.4 | 0.00 | 0.00 | 0.00 | 74 | 1009.5 |
| 20260505194055 | 27 | 23 | 3.2 | 6.4 | 0.00 | 0.00 | 0.00 | 75 | 1009.3 |
| 20260505193546 | 27 | 90 | 1.6 | 9.7 | 0.00 | 0.00 | 0.00 | 75 | 1009.8 |
| 20260505193034 | 27 | 68 | 3.2 | 9.7 | 0.00 | 0.00 | 0.00 | 74 | 1009.7 |
| 20260505192527 | 27 | 23 | 0.0 | 6.4 | 0.00 | 0.00 | 0.00 | 74 | 1009.4 |
| 20260505192002 | 27 | 45 | 3.2 | 6.4 | 0.00 | 0.00 | 0.00 | 74 | 1009.5 |
| 20260505191505 | 27 | 90 | 0.0 | 6.4 | 0.00 | 0.00 | 0.00 | 74 | 1009.5 |
| 20260505190954 | 27 | 45 | 3.2 | 6.4 | 0.00 | 0.00 | 0.00 | 74 | 1009.5 |
| 20260505190444 | 26 | 68 | 0.0 | 9.7 | 0.00 | 0.00 | 0.00 | 75 | 1009.5 |
| 20260505185424 | 26 | 68 | 3.2 | 6.4 | 0.00 | 0.00 | 0.00 | 76 | 1009.5 |
| 20260505184914 | 26 | 68 | 3.2 | 6.4 | 0.00 | 0.00 | 0.00 | 76 | 1009.4 |
| 20260505184404 | 26 | 45 | 3.2 | 6.4 | 0.00 | 0.00 | 0.00 | 76 | 1009.6 |
| 20260505183854 | 26 | 68 | 0.0 | 6.4 | 0.00 | 0.00 | 0.00 | 76 | 1009.6 |
| 20260505183344 | 26 | 23 | 4.8 | 6.4 | 0.00 | 0.00 | 0.00 | 76 | 1009.7 |
| 20260505182833 | 26 | 45 | 3.2 | 9.7 | 0.00 | 0.00 | 0.00 | 76 | 1009.7 |
| 20260505182323 | 26 | 23 | 1.6 | 11.3 | 0.00 | 0.00 | 0.00 | 76 | 1009.8 |
| 20260505181813 | 26 | 23 | 4.8 | 11.3 | 0.00 | 0.00 | 0.00 | 76 | 1009.8 |
| 20260505181306 | 26 | 45 | 6.4 | 9.7 | 0.00 | 0.00 | 0.00 | 75 | 1009.8 |
| 20260505180752 | 26 | 90 | 1.6 | 11.3 | 0.00 | 0.00 | 0.00 | 75 | 1009.6 |
| 20260505180242 | 26 | 68 | 3.2 | 11.3 | 0.00 | 0.00 | 0.00 | 75 | 1009.7 |
| 20260505175732 | 26 | 45 | 6.4 | 11.3 | 0.00 | 0.00 | 0.00 | 74 | 1009.9 |
| 20260505174712 | 27 | 23 | 1.6 | 9.7 | 0.00 | 0.00 | 0.00 | 73 | 1009.8 |
| 20260505174202 | 27 | 23 | 3.2 | 11.3 | 0.00 | 0.00 | 0.00 | 74 | 1009.9 |
| 20260505173141 | 26 | 23 | 3.2 | 11.3 | 0.00 | 0.00 | 0.00 | 76 | 1010.2 |
| 20260505172632 | 26 | 45 | 6.4 | 11.3 | 0.00 | 0.00 | 0.00 | 76 | 1010.1 |
| 20260505172121 | 26 | 68 | 3.2 | 6.4 | 0.00 | 0.00 | 0.00 | 76 | 1010.2 |
| 20260505171611 | 26 | 68 | 3.2 | 9.7 | 0.00 | 0.00 | 0.00 | 76 | 1010.4 |
| 20260505171103 | 26 | 45 | 4.8 | 9.7 | 0.00 | 0.00 | 0.00 | 76 | 1010.5 |
| 20260505170551 | 25 | 23 | 3.2 | 12.9 | 0.00 | 0.00 | 0.00 | 77 | 1010.4 |
| 20260505170032 | 25 | 68 | 3.2 | 12.9 | 0.00 | 0.00 | 0.00 | 78 | 1010.6 |
| 20260505165530 | 26 | 68 | 3.2 | 11.3 | 0.00 | 0.00 | 0.00 | 76 | 1010.7 |
| 20260505165020 | 25 | 23 | 4.8 | 9.7 | 0.00 | 0.00 | 0.00 | 77 | 1010.8 |
| 20260505164510 | 26 | 68 | 4.8 | 6.4 | 0.00 | 0.00 | 0.00 | 78 | 1010.8 |
| 20260505163450 | 25 | 23 | 0.0 | 6.4 | 0.00 | 0.00 | 0.00 | 78 | 1011.1 |
| 20260505162940 | 25 | 90 | 3.2 | 6.4 | 0.00 | 0.00 | 0.00 | 79 | 1011.3 |
| 20260505162430 | 25 | 68 | 0.0 | 9.7 | 0.00 | 0.00 | 0.00 | 78 | 1011.2 |
| 20260505161919 | 25 | 23 | 3.2 | 12.9 | 0.00 | 0.00 | 0.00 | 79 | 1011.4 |
| 20260505161409 | 25 | 23 | 3.2 | 12.9 | 0.00 | 0.00 | 0.00 | 79 | 1011.3 |
| 20260505160349 | 25 | 68 | 3.2 | 9.7 | 0.00 | 0.00 | 0.00 | 79 | 1011.3 |
| 20260505152738 | 22 | 45 | 3.2 | 6.4 | 0.00 | 0.00 | 0.00 | 84 | 1011.9 |
| 20260505151718 | 23 | 45 | 3.2 | 3.2 | 0.00 | 0.00 | 0.00 | 82 | 1012.0 |
| 20260505151208 | 22 | 68 | 0.0 | 6.4 | 0.00 | 0.00 | 0.00 | 85 | 1012.2 |
| 20260505150657 | 22 | 68 | 3.2 | 6.4 | 0.00 | 0.00 | 0.00 | 85 | 1012.3 |
| 20260505140455 | 21 | 68 | 1.6 | 6.4 | 0.00 | 0.00 | 0.00 | 87 | 1012.5 |
| 20260505130254 | 20 | 45 | 0.0 | 6.4 | 0.00 | 0.00 | 0.00 | 85 | 1012.4 |
| 20260505124724 | 20 | 68 | 0.0 | 3.2 | 0.00 | 0.00 | 0.00 | 85 | 1012.2 |
| 20260505123152 | 20 | 68 | 0.0 | 6.4 | 0.00 | 0.00 | 0.00 | 86 | 1012.1 |
| 20260505122133 | 20 | 68 | 0.0 | 0.0 | 0.00 | 0.00 | 0.00 | 86 | 1012.1 |
| 20260505121622 | 20 | 45 | 0.0 | 0.0 | 0.00 | 0.00 | 0.00 | 86 | 1012.0 |
| 20260505121112 | 20 | 23 | 0.0 | 6.4 | 0.00 | 0.00 | 0.00 | 86 | 1012.1 |
| 20260505120051 | 19 | 45 | 0.0 | 0.0 | 0.00 | 0.00 | 0.00 | 87 | 1011.9 |
| 20260505115031 | 18 | 45 | 0.0 | 0.0 | 0.00 | 0.00 | 0.00 | 88 | 1011.9 |
| 20260505114007 | 18 | 68 | 0.0 | 0.0 | 0.00 | 0.00 | 0.00 | 89 | 1011.9 |
| 20260505113501 | 18 | 45 | 0.0 | 0.0 | 0.00 | 0.00 | 0.00 | 89 | 1011.8 |
| 20260505112951 | 18 | 23 | 0.0 | 0.0 | 0.00 | 0.00 | 0.00 | 89 | 1011.8 |
| 20260505112442 | 18 | 23 | 0.0 | 0.0 | 0.00 | 0.00 | 0.00 | 89 | 1011.8 |
| 20260505111930 | 18 | 45 | 0.0 | 0.0 | 0.00 | 0.00 | 0.00 | 90 | 1011.8 |
| 20260505111421 | 18 | 68 | 0.0 | 0.0 | 0.00 | 0.00 | 0.00 | 90 | 1011.6 |
| 20260505110910 | 18 | 45 | 0.0 | 0.0 | 0.00 | 0.00 | 0.00 | 90 | 1011.8 |
| 20260505110401 | 18 | 68 | 0.0 | 0.0 | 0.00 | 0.00 | 0.00 | 90 | 1011.5 |
| 20260505101729 | 17 | 45 | 0.0 | 0.0 | 0.00 | 0.00 | 0.00 | 92 | 1010.9 |
| 20260505101220 | 17 | 45 | 0.0 | 3.2 | 0.00 | 0.00 | 0.00 | 92 | 1010.6 |
| 20260505100159 | 17 | 0 | 0.0 | 3.2 | 0.00 | 0.00 | 0.00 | 93 | 1010.7 |
| 20260505095135 | 17 | 45 | 1.6 | 3.2 | 0.00 | 0.00 | 0.00 | 93 | 1010.9 |
| 20260505094628 | 17 | 45 | 0.0 | 3.2 | 0.00 | 0.00 | 0.00 | 93 | 1010.6 |
| 20260505094118 | 17 | 45 | 0.0 | 3.2 | 0.00 | 0.00 | 0.00 | 93 | 1010.7 |
| 20260505093608 | 17 | 0 | 0.0 | 3.2 | 0.00 | 0.00 | 0.00 | 93 | 1010.5 |
| 20260505093058 | 17 | 0 | 0.0 | 0.0 | 0.00 | 0.00 | 0.00 | 92 | 1010.5 |
| 20260505092548 | 17 | 0 | 0.0 | 0.0 | 0.00 | 0.00 | 0.00 | 92 | 1010.6 |
| 20260505092037 | 17 | 0 | 0.0 | 0.0 | 0.00 | 0.00 | 0.00 | 92 | 1010.3 |
| 20260505091531 | 17 | 45 | 0.0 | 3.2 | 0.00 | 0.00 | 0.00 | 92 | 1010.2 |
| 20260505091013 | 17 | 45 | 0.0 | 3.2 | 0.00 | 0.00 | 0.00 | 92 | 1010.2 |
| 20260505084426 | 17 | 23 | 0.0 | 0.0 | 0.00 | 0.00 | 0.00 | 92 | 1010.5 |
| 20260505083917 | 17 | 0 | 0.0 | 0.0 | 0.00 | 0.00 | 0.00 | 92 | 1010.2 |
| 20260505083406 | 17 | 0 | 0.0 | 0.0 | 0.00 | 0.00 | 0.00 | 91 | 1010.3 |
| 20260505082856 | 18 | 0 | 0.0 | 0.0 | 0.00 | 0.00 | 0.00 | 91 | 1010.3 |
| 20260505082346 | 18 | 0 | 0.0 | 0.0 | 0.00 | 0.00 | 0.00 | 91 | 1010.2 |
| 20260505081836 | 17 | 0 | 0.0 | 0.0 | 0.00 | 0.00 | 0.00 | 91 | 1010.2 |
| 20260505081326 | 17 | 0 | 0.0 | 0.0 | 0.00 | 0.00 | 0.00 | 90 | 1010.5 |
| 20260505080815 | 17 | 0 | 0.0 | 0.0 | 0.00 | 0.00 | 0.00 | 90 | 1010.2 |
| 20260505080305 | 18 | 0 | 0.0 | 0.0 | 0.00 | 0.00 | 0.00 | 89 | 1010.2 |
| 20260505075755 | 18 | 0 | 0.0 | 0.0 | 0.00 | 0.00 | 0.00 | 89 | 1010.3 |
| 20260505075245 | 18 | 0 | 0.0 | 0.0 | 0.00 | 0.00 | 0.00 | 89 | 1010.2 |
| 20260505074225 | 18 | 45 | 0.0 | 0.0 | 0.00 | 0.00 | 0.00 | 88 | 1010.3 |
| 20260505073714 | 18 | 23 | 0.0 | 0.0 | 0.00 | 0.00 | 0.00 | 87 | 1010.4 |
| 20260505073204 | 18 | 23 | 0.0 | 3.2 | 0.00 | 0.00 | 0.00 | 87 | 1010.4 |
| 20260505072655 | 18 | 23 | 0.0 | 3.2 | 0.00 | 0.00 | 0.00 | 87 | 1010.6 |
| 20260505072144 | 18 | 23 | 0.0 | 0.0 | 0.00 | 0.00 | 0.00 | 87 | 1010.5 |
| 20260505071634 | 18 | 45 | 0.0 | 0.0 | 0.00 | 0.00 | 0.00 | 86 | 1010.3 |